EW4610 Weather Reports


Display with metric or nautical units.
time (UTC)temp
F
wind
direction
speed
MPH
gust
MPH
rain 1hr
in
rain 24hr
in
rain mn
in
humidity
%
barometer
mb
20260505175745 58 0.0 1.0 0.00 0.00 0.00 55 1011.8
20260505175215 58 0.0 2.0 0.00 0.00 0.00 55 1011.8
20260505174644 58 0.0 1.0 0.00 0.00 0.00 55 1011.9
20260505174023 58 0.0 1.0 0.00 0.00 0.00 55 1011.7
20260505173438 58 0.0 1.0 0.00 0.00 0.00 55 1011.8
20260505172907 59 0.0 2.0 0.00 0.00 0.00 54 1011.8
20260505172321 59 0.0 0.0 0.00 0.00 0.00 54 1011.8
20260505171821 59 0.0 0.0 0.00 0.00 0.00 54 1011.8
20260505171305 59 0.0 0.0 0.00 0.00 0.00 54 1011.7
20260505170729 59 0.0 0.0 0.00 0.00 0.00 53 1011.6
20260505170158 60 0.0 2.0 0.00 0.00 0.00 53 1011.8
20260505165448 60 0.0 3.0 0.00 0.00 0.00 53 1011.8
20260505164915 60 1.0 2.0 0.00 0.00 0.00 53 1011.8
20260505164323 60 0.0 0.0 0.00 0.00 0.00 53 1011.8
20260505163821 60 0.0 2.0 0.00 0.00 0.00 53 1011.8
20260505163319 60 0.0 1.0 0.00 0.00 0.00 53 1011.7
20260505162818 60 0.0 0.0 0.00 0.00 0.00 52 1011.6
20260505162317 61 0.0 0.0 0.00 0.00 0.00 52 1011.6
20260505161816 61 0.0 2.0 0.00 0.00 0.00 52 1011.8
20260505161331 61 0.0 0.0 0.00 0.00 0.00 51 1011.8
20260505160833 61 1.0 2.0 0.00 0.00 0.00 52 1011.9
20260505160322 61 0.0 1.0 0.00 0.00 0.00 51 1011.8
20260505153326 61 0.0 2.0 0.00 0.00 0.00 52 1011.9
20260505152819 61 0.0 3.0 0.00 0.00 0.00 52 1011.9
20260505152248 61 2.0 3.0 0.00 0.00 0.00 52 1011.9
20260505151711 61 0.0 2.0 0.00 0.00 0.00 52 1011.9
20260505151130 61 0.0 0.0 0.00 0.00 0.00 52 1012.2
20260505150558 61 0.0 2.0 0.00 0.00 0.00 52 1011.9
20260505124817 64 2.0 5.0 0.00 0.00 0.00 51 1012.7
20260505124316 63 2.0 4.0 0.00 0.00 0.00 51 1012.8
20260505123816 63 2.0 2.0 0.00 0.00 0.00 51 1012.6
20260505123314 64 1.0 2.0 0.00 0.00 0.00 51 1012.8
20260505122811 64 0.0 1.0 0.00 0.00 0.00 51 1012.6
20260505122240 64 2.0 5.0 0.00 0.00 0.00 51 1012.6
20260505121710 64 2.0 7.0 0.00 0.00 0.00 50 1012.6
20260505121122 65 3.0 6.0 0.00 0.00 0.00 50 1012.7
20260505120622 65 1.0 3.0 0.00 0.00 0.00 52 1012.7
20260505115703 63 6.0 11.0 0.00 0.00 0.00 52 1012.6
20260505115130 63 1.0 6.0 0.00 0.00 0.00 52 1012.7
20260505114555 64 2.0 4.0 0.00 0.00 0.00 51 1012.6
20260505114024 64 2.0 3.0 0.00 0.00 0.00 51 1012.6
20260505113437 64 2.0 6.0 0.00 0.00 0.00 50 1012.9
20260505112921 65 3.0 8.0 0.00 0.00 0.00 50 1012.9
20260505112340 65 1.0 3.0 0.00 0.00 0.00 50 1012.9
20260505111711 66 2.0 4.0 0.00 0.00 0.00 51 1013.0
20260505111124 66 3.0 5.0 0.00 0.00 0.00 50 1012.9
20260505110553 67 1.0 3.0 0.00 0.00 0.00 50 1013.0
20260505101656 63 4.0 8.0 0.00 0.00 0.00 60 1013.1
20260505101126 63 2.0 4.0 0.00 0.00 0.00 61 1013.3
20260505100555 62 2.0 3.0 0.00 0.00 0.00 63 1013.3
20260505100052 60 2.0 4.0 0.00 0.00 0.00 64 1013.4
20260505095404 60 2.0 4.0 0.00 0.00 0.00 63 1013.3
20260505094822 61 2.0 3.0 0.00 0.00 0.00 63 1013.5
20260505094251 61 4.0 6.0 0.00 0.00 0.00 65 1013.4
20260505093447 60 1.0 2.0 0.00 0.00 0.00 68 1013.3
20260505092913 59 0.0 1.0 0.00 0.00 0.00 68 1013.4
20260505092247 58 3.0 6.0 0.00 0.00 0.00 68 1013.3
20260505091657 59 2.0 4.0 0.00 0.00 0.00 68 1013.4
20260505091126 59 1.0 2.0 0.00 0.00 0.00 70 1013.4
20260505090556 58 2.0 4.0 0.00 0.00 0.00 71 1013.5
20260505090025 58 1.0 5.0 0.00 0.00 0.00 72 1013.6
20260505085439 57 2.0 4.0 0.00 0.00 0.00 73 1013.6
20260505084908 56 2.0 3.0 0.00 0.00 0.00 75 1013.7
20260505084322 56 2.0 3.0 0.00 0.00 0.00 75 1013.7
20260505083821 55 2.0 2.0 0.00 0.00 0.00 75 1013.6
20260505083320 55 0.0 2.0 0.00 0.00 0.00 75 1013.4
20260505082820 55 2.0 3.0 0.00 0.00 0.00 75 1013.6
20260505082314 55 1.0 4.0 0.00 0.00 0.00 76 1013.9
20260505081812 55 1.0 2.0 0.00 0.00 0.00 76 1013.8
20260505081311 55 3.0 5.0 0.00 0.00 0.00 77 1013.7
20260505080841 55 3.0 4.0 0.00 0.00 0.00 78 1013.8
20260505080320 55 1.0 2.0 0.00 0.00 0.00 78 1013.7
20260505075818 55 0.0 1.0 0.00 0.00 0.00 78 1013.5
20260505075317 55 1.0 3.0 0.00 0.00 0.00 79 1013.7
20260505074811 54 3.0 4.0 0.00 0.00 0.00 79 1013.4
20260505074311 55 3.0 5.0 0.00 0.00 0.00 79 1013.4
20260505073810 55 2.0 4.0 0.00 0.00 0.00 80 1013.4
20260505073325 55 3.0 6.0 0.00 0.00 0.00 79 1013.5
20260505072819 55 1.0 2.0 0.00 0.00 0.00 80 1013.3
20260505072317 55 1.0 3.0 0.00 0.00 0.00 81 1013.4
20260505071827 55 1.0 2.0 0.00 0.00 0.00 82 1013.5
20260505071320 55 1.0 2.0 0.00 0.00 0.00 82 1013.5
20260505070819 54 0.0 2.0 0.00 0.00 0.00 83 1013.6
20260505070319 54 2.0 4.0 0.00 0.00 0.00 83 1013.7
20260505065813 54 1.0 3.0 0.00 0.00 0.00 84 1013.6
20260505065326 54 2.0 4.0 0.00 0.00 0.00 85 1013.9
20260505064818 54 0.0 1.0 0.00 0.00 0.00 85 1013.7
20260505064318 53 2.0 3.0 0.00 0.00 0.00 86 1013.9
20260505063817 53 0.0 2.0 0.00 0.00 0.00 86 1013.7
20260505063315 53 0.0 1.0 0.00 0.00 0.00 87 1013.8
20260505062832 53 0.0 2.0 0.00 0.00 0.00 88 1013.6
20260505062318 53 0.0 2.0 0.00 0.00 0.00 88 1013.9
20260505061831 53 2.0 3.0 0.00 0.00 0.00 89 1013.7
20260505061320 53 1.0 3.0 0.00 0.00 0.00 89 1013.8
20260505060819 53 0.0 2.0 0.00 0.00 0.00 90 1013.7
20260505060319 53 0.0 0.0 0.00 0.00 0.00 90 1013.7
20260505055819 53 0.0 1.0 0.00 0.00 0.00 90 1013.7
20260505055318 52 0.0 0.0 0.00 0.00 0.00 90 1013.6
20260505054817 52 1.0 2.0 0.00 0.00 0.00 90 1013.6
20260505054316 52 0.0 0.0 0.00 0.00 0.00 90 1013.9
20260505053816 52 1.0 3.0 0.00 0.00 0.00 91 1013.8
20260505053310 52 0.0 2.0 0.00 0.00 0.00 91 1013.7
20260505052825 52 0.0 2.0 0.00 0.00 0.00 91 1013.5
20260505052319 52 0.0 0.0 0.00 0.00 0.00 91 1013.6
20260505051819 52 2.0 4.0 0.00 0.00 0.00 91 1013.7
20260505051318 52 0.0 1.0 0.00 0.00 0.00 91 1013.8
20260505050818 52 0.0 1.0 0.00 0.00 0.00 92 1013.9
20260505050317 52 0.0 2.0 0.00 0.00 0.00 92 1013.8
20260505041658 52 0.0 2.0 0.00 0.00 0.00 92 1014.0
20260505041127 52 0.0 0.0 0.00 0.00 0.00 92 1014.0
20260505040557 52 1.0 3.0 0.00 0.00 0.00 92 1013.7
20260505040021 52 0.0 1.0 0.00 0.00 0.00 92 1013.8
20260505035435 52 0.0 0.0 0.00 0.00 0.00 92 1013.8
20260505034905 52 0.0 1.0 0.00 0.00 0.00 92 1013.9
20260505034320 52 0.0 0.0 0.00 0.00 0.00 91 1013.9
20260505033819 52 0.0 0.0 0.00 0.00 0.00 91 1014.0
20260505033319 52 0.0 0.0 0.00 0.00 0.00 91 1014.0
20260505032818 52 0.0 0.0 0.00 0.00 0.00 91 1013.8
20260505032317 52 0.0 2.0 0.00 0.00 0.00 91 1013.9
20260505031812 52 0.0 0.0 0.00 0.00 0.00 91 1013.8
20260505031312 52 0.0 2.0 0.00 0.00 0.00 91 1013.9
20260505030811 52 0.0 1.0 0.00 0.00 0.00 91 1014.1
20260505030311 52 2.0 3.0 0.00 0.00 0.00 91 1014.0
20260505025810 52 0.0 1.0 0.00 0.00 0.00 91 1014.1
20260505025310 52 0.0 0.0 0.00 0.00 0.00 90 1014.1
20260505024824 52 0.0 0.0 0.00 0.00 0.00 90 1014.0
20260505024239 52 0.0 0.0 0.00 0.00 0.00 90 1014.1
20260505023708 52 0.0 1.0 0.00 0.00 0.00 90 1014.2
20260505023122 52 0.0 2.0 0.00 0.00 0.00 90 1014.1
20260505022552 52 0.0 0.0 0.00 0.00 0.00 90 1014.0
20260505022021 52 0.0 2.0 0.00 0.00 0.00 90 1014.1
20260505021436 52 0.0 1.0 0.00 0.00 0.00 90 1014.1
20260505020906 52 0.0 1.0 0.00 0.00 0.00 90 1014.2
20260505020320 52 0.0 1.0 0.00 0.00 0.00 89 1014.2
20260505015819 53 0.0 1.0 0.00 0.00 0.00 89 1014.2
20260505015319 53 0.0 0.0 0.00 0.00 0.00 89 1014.2
20260505014819 53 1.0 3.0 0.00 0.00 0.00 89 1014.3
20260505014333 53 0.0 0.0 0.00 0.00 0.00 89 1014.1
20260505013811 53 2.0 4.0 0.00 0.00 0.00 89 1014.3
20260505013311 53 2.0 6.0 0.00 0.00 0.00 89 1014.5
20260505012810 53 0.0 1.0 0.00 0.00 0.00 89 1014.2
20260505012310 53 2.0 4.0 0.00 0.00 0.00 89 1014.4
20260505011809 53 0.0 1.0 0.00 0.00 0.00 89 1014.3
20260505011309 53 1.0 3.0 0.00 0.00 0.00 88 1014.6
20260505010824 53 0.0 0.0 0.00 0.00 0.00 88 1014.6
20260505010319 53 0.0 0.0 0.00 0.00 0.00 88 1014.5
20260505005817 53 0.0 1.0 0.00 0.00 0.00 87 1014.7
20260505005317 53 1.0 2.0 0.00 0.00 0.00 87 1014.6
20260505004817 53 0.0 2.0 0.00 0.00 0.00 87 1014.7
20260505004316 53 0.0 1.0 0.00 0.00 0.00 87 1014.6
20260505003815 53 2.0 4.0 0.00 0.00 0.00 87 1014.7
20260505003315 53 0.0 1.0 0.00 0.00 0.00 86 1014.7
20260505002830 54 1.0 3.0 0.00 0.00 0.00 86 1014.8
20260505002318 54 0.0 1.0 0.00 0.00 0.00 86 1014.9
20260505001818 54 0.0 2.0 0.00 0.00 0.00 86 1014.5
20260505001318 54 0.0 0.0 0.00 0.00 0.00 85 1014.7
20260505000817 54 0.0 3.0 0.00 0.00 0.00 85 1014.8
20260505000233 54 0.0 1.0 0.00 0.00 0.00 84 1014.9
20260504235701 54 0.0 1.0 0.00 0.00 0.00 83 1014.6
20260504235131 55 0.0 0.0 0.00 0.00 0.00 82 1014.8
20260504234545 55 4.0 6.0 0.00 0.00 0.00 82 1014.9
20260504234015 55 2.0 6.0 0.00 0.00 0.00 82 1014.8
20260504233444 55 1.0 3.0 0.00 0.00 0.00 82 1014.8
20260504232858 55 1.0 2.0 0.00 0.00 0.00 82 1014.8
20260504232328 55 0.0 0.0 0.00 0.00 0.00 82 1014.9
20260504231821 55 1.0 2.0 0.00 0.00 0.00 82 1014.9
20260504231321 55 2.0 2.0 0.00 0.00 0.00 82 1014.9
20260504230820 55 3.0 4.0 0.00 0.00 0.00 82 1015.1
20260504230314 55 0.0 2.0 0.00 0.00 0.00 82 1014.9
20260504225814 55 3.0 4.0 0.00 0.00 0.00 82 1015.1
20260504225313 55 0.0 2.0 0.00 0.00 0.00 82 1015.3
20260504224827 55 2.0 3.0 0.00 0.00 0.00 82 1015.0
20260504224231 55 0.0 2.0 0.00 0.00 0.00 82 1015.1
20260504223701 55 0.0 2.0 0.00 0.00 0.00 82 1015.0
20260504223131 55 2.0 3.0 0.00 0.00 0.00 82 1014.9
20260504222545 55 1.0 2.0 0.00 0.00 0.00 82 1015.1
20260504222015 55 2.0 5.0 0.00 0.00 0.00 83 1014.9
20260504221438 56 4.0 5.0 0.00 0.00 0.00 84 1015.0
20260504220908 56 2.0 8.0 0.00 0.00 0.00 85 1015.0
20260504220323 56 2.0 4.0 0.00 0.00 0.00 85 1015.1
20260504215822 56 0.0 1.0 0.00 0.00 0.00 86 1015.0
20260504215326 56 2.0 3.0 0.00 0.00 0.00 86 1015.2
20260504214820 56 0.0 0.0 0.00 0.00 0.00 86 1015.1
20260504214235 56 0.0 0.0 0.00 0.00 0.00 85 1015.3
20260504213519 56 0.0 0.0 0.00 0.00 0.00 85 1015.1
20260504212949 56 0.0 0.0 0.00 0.00 0.00 85 1015.2
20260504212419 56 0.0 2.0 0.00 0.00 0.00 85 1015.2
20260504211826 56 0.0 2.0 0.00 0.00 0.00 84 1015.0
20260504211320 56 2.0 4.0 0.00 0.00 0.00 84 1015.1
20260504210829 56 0.0 1.0 0.00 0.00 0.00 84 1015.0
20260504210309 56 0.0 1.0 0.00 0.00 0.00 83 1015.0
20260504205808 56 0.0 0.0 0.00 0.00 0.00 82 1015.2
20260504205323 57 0.0 2.0 0.00 0.00 0.00 82 1015.1
20260504204736 57 0.0 2.0 0.00 0.00 0.00 81 1015.1
20260504204145 57 0.0 1.0 0.00 0.00 0.00 80 1015.1
20260504203529 57 0.0 1.0 0.00 0.00 0.00 80 1015.2
20260504202859 57 0.0 0.0 0.00 0.00 0.00 80 1015.2
20260504202328 57 0.0 3.0 0.00 0.00 0.00 80 1015.2
20260504201821 57 0.0 0.0 0.00 0.00 0.00 80 1015.1
20260504201321 57 0.0 1.0 0.00 0.00 0.00 80 1015.2
20260504200820 57 1.0 4.0 0.00 0.00 0.00 79 1015.0
20260504200316 57 0.0 2.0 0.00 0.00 0.00 79 1015.1
20260504195813 57 2.0 4.0 0.00 0.00 0.00 79 1015.1
20260504195312 57 0.0 1.0 0.00 0.00 0.00 79 1015.0
20260504194810 57 0.0 2.0 0.00 0.00 0.00 79 1015.0
20260504194310 57 0.0 1.0 0.00 0.00 0.00 79 1014.8
20260504193754 57 0.0 2.0 0.00 0.00 0.00 79 1014.9
20260504193223 57 0.0 2.0 0.00 0.00 0.00 79 1014.7
20260504192647 57 0.0 1.0 0.00 0.00 0.00 79 1014.7
20260504192111 57 0.0 2.0 0.00 0.00 0.00 79 1014.7
20260504191450 57 1.0 4.0 0.00 0.00 0.00 79 1014.7
20260504190914 57 2.0 4.0 0.00 0.00 0.00 78 1014.7
20260504190323 57 0.0 2.0 0.00 0.00 0.00 78 1014.4
20260504185822 57 0.0 2.0 0.00 0.00 0.00 78 1014.6
20260504185326 57 0.0 1.0 0.00 0.00 0.00 78 1014.8
20260504184820 57 1.0 2.0 0.00 0.00 0.00 77 1014.4
20260504184319 58 0.0 2.0 0.00 0.00 0.00 77 1014.5
20260504183819 58 0.0 0.0 0.00 0.00 0.00 76 1014.5
20260504183316 58 0.0 2.0 0.00 0.00 0.00 76 1014.5
20260504182815 58 1.0 2.0 0.00 0.00 0.00 76 1014.6
20260504182314 59 2.0 4.0 0.00 0.00 0.00 75 1014.6
20260504181808 59 0.0 1.0 0.00 0.00 0.00 75 1014.5
20260504181323 59 0.0 0.0 0.00 0.00 0.00 75 1014.7
20260504180817 59 0.0 1.0 0.00 0.00 0.00 74 1014.5
20260504180311 59 0.0 1.0 0.00 0.00 0.00 74 1014.6